[[{"header":{"parameterUnit":"m.s-1","parameterCategory":1,"la1":30.2991,"la2":30.254,"lo1":-89.0895,"lo2":-89.0444,"dy":0.0017,"dx":0.0017,"nx":28,"ny":28,"refTime":"2024-05-13T21:00:00:Z","depth":0,"parameterNumber":2,"parameterNumberName":"U-component_of_WINDS"},"data":[0,0,0,0,0,0,0,0,0,0,0,0,0,0,0,0,0,0,0,0,0,0,0,0,0,0,0,0,0,0,0,0,0,0,0,0,0,0,0,0,0,0,0,0,0,0,0,0,0,0,0,0,0,0,0,0,0,0,-6.8424,-6.8422,0,-6.8309,-6.8307,-6.8306,-6.807,-6.8065,-6.8061,-6.8056,-6.7943,-6.7944,-6.7945,0,0,0,0,0,0,0,0,0,0,0,0,0,-6.8442,-6.8443,-6.8424,-6.8422,-6.8421,-6.8309,-6.8307,-6.8306,-6.8071,-6.8065,-6.8059,-6.8054,-6.7942,-6.7944,-6.7946,0,0,0,0,0,0,0,0,0,0,0,0,0,-6.8392,-6.8444,-6.8424,-6.829,-6.8277,-6.8309,-6.8307,-6.8305,-6.8072,-6.8065,-6.8058,-6.8051,-6.7942,-6.7944,-6.7946,-6.8101,0,0,-6.7952,-6.7953,0,0,0,0,0,0,0,0,-6.8395,-6.8392,-6.8311,-6.8299,-6.8285,-6.8196,-6.8272,-6.8237,-6.8074,-6.815,-6.8056,-6.8048,-6.8033,-6.8027,-6.8021,-6.8095,-6.809,-6.7952,-6.7954,-6.7955,-6.7955,0,0,0,0,0,0,0,-6.8399,-6.8395,-6.8378,-6.831,-6.8294,-6.8237,-6.8222,-6.8264,-6.8133,-6.8143,-6.8125,-6.8115,-6.8025,-6.802,-6.8017,-6.8089,-6.7952,-6.7954,-6.7955,-6.7956,-6.8281,-6.8288,0,0,0,0,0,0,-6.8421,-6.84,-6.8382,-6.8375,-6.8323,-6.8242,-6.8225,-6.8232,-6.8132,-6.811,-6.8121,-6.8104,-6.802,-6.8015,-6.8012,-6.8184,-6.7955,-6.7956,-6.7958,-6.8274,-6.8282,-6.829,0,0,0,0,0,0,-6.8423,-6.8422,-6.8386,-6.8382,-6.8373,-6.8249,-6.8259,-6.8233,-6.8228,-6.8115,-6.8091,-6.814,-6.8014,-6.8009,-6.8079,-6.8177,-6.7957,-6.7959,-6.8265,-6.8276,-6.8286,-6.8532,0,0,0,0,0,0,-6.8424,-6.8424,-6.8481,-6.8385,-6.8375,-6.8456,-6.8265,-6.8236,-6.8232,-6.8209,-6.8127,-6.8106,-6.8008,-6.8078,-6.8082,-6.8176,-6.7961,-6.8255,-6.827,-6.8283,-6.8514,-6.855,-6.858,0,0,0,0,0,-6.8426,-6.8556,-6.8485,-6.8484,-6.8443,-6.8462,-6.8456,-6.8339,-6.8241,-6.8297,-6.8224,-6.8109,-6.8166,-6.8087,-6.8089,-6.8186,-6.8249,-6.8266,-6.8282,-6.85,-6.8543,-6.8579,0,0,0,0,0,0,-6.8668,-6.8541,-6.8461,-6.8564,-6.8525,-6.8422,-6.8489,-6.8389,-6.8378,-6.8357,-6.8214,-6.8197,-6.8286,-6.8243,-6.8157,-6.8329,-6.8189,-6.8207,-6.8354,-6.8394,-6.8426,-6.8434,-6.7963,0,0,0,0,0,-6.8734,-6.8758,-6.8646,-6.8748,-6.8733,-6.8615,-6.8619,-6.8532,-6.8487,-6.847,-6.8401,-6.8363,-6.8371,-6.838,-6.8383,-6.8507,-6.8485,-6.8575,-6.8608,-6.8636,-6.8652,-6.8713,-6.8751,-6.8345,-6.8345,-6.8344,0,0,-6.8869,-6.8803,-6.8827,-6.8795,-6.8755,-6.8784,-6.8603,-6.8642,-6.8662,-6.8476,-6.8536,-6.8486,-6.8433,-6.8531,-6.8571,-6.8498,-6.8759,-6.8657,-6.868,-6.8681,-6.8734,-6.8772,-6.8806,-6.8356,-6.8354,-6.8352,0,0,-6.913,-6.9083,-6.9161,-6.9124,-6.9065,-6.8985,-6.9005,-6.8916,-6.8875,-6.8933,-6.8793,-6.8816,-6.8835,-6.8802,-6.8788,-6.9036,-6.8929,-6.9041,-6.9213,-6.9273,-6.9305,-6.9333,-6.9419,-6.9452,-6.9059,-6.9059,-6.906,0,-6.9306,-6.9343,-6.9215,-6.9262,-6.9251,-6.9082,-6.916,-6.9131,-6.9077,-6.9074,-6.8993,-6.9011,-6.8964,-6.905,-6.9111,-6.9106,-6.9122,-6.9049,-6.9311,-6.9337,-6.9361,-6.9442,-6.9475,-6.9073,-6.9071,-6.907,-6.9069,0,-6.9562,-6.959,-6.966,-6.9609,-6.9607,-6.967,-6.9552,-6.9565,-6.9479,-6.9409,-6.947,-6.9407,-6.9392,-6.9407,-6.9324,-6.9482,-6.9438,-6.9337,-6.9192,-6.9416,-6.9489,-6.9519,-6.9093,-6.9088,-6.9084,-6.908,0,0,-6.9971,-6.9848,-6.9876,-6.9849,-6.9771,-6.9791,-6.9846,-6.983,-6.9843,-6.9812,-6.9854,-6.9873,-6.9777,-6.9762,-6.9674,-6.9728,-6.9925,-6.9618,-6.9615,-6.9676,-7.0092,-7.0168,-7.0206,-6.9854,-6.986,-6.9864,-7.0096,0,-7.0213,-7.0298,-7.0184,-7.0295,-7.0318,-7.0158,-7.0206,-7.0164,-7.01,-7.0111,-7.004,-7.0055,-6.9929,-6.9918,-6.9964,-6.9892,-7.0007,-6.9874,-6.9891,-6.9893,-6.9907,-7.0244,-7.0324,-7.0546,-7.0124,-7.0129,-7.0132,0,-7.0506,-7.0486,-7.0599,-7.0511,-7.0517,-7.0562,-7.0537,-7.055,-7.0499,-7.0448,-7.0431,-7.0325,-7.0372,-7.0235,-7.0298,-7.021,-7.021,-7.0176,-7.0182,-7.0177,-7.0025,-7.0247,-7.0614,-7.0647,-7.0176,-7.0173,-7.017,0,-7.0791,-7.0792,-7.0859,-7.0842,-7.0743,-7.0778,-7.0739,-7.068,-7.0677,-7.0656,-7.0652,-7.0639,-7.0631,-7.0622,-7.0515,-7.0425,-7.0591,-7.0445,-7.0549,-7.0553,-7.059,-7.0589,-7.0961,-7.0596,-7.0595,-7.0594,-7.0594,0,-7.1071,-7.1146,-7.0985,-7.1027,-7.1105,-7.0974,-7.1056,-7.1,-7.095,-7.0977,-7.0839,-7.0868,-7.0726,-7.074,-7.0657,-7.072,-7.0719,-7.0679,-7.0655,-7.069,-7.0695,-7.0686,-7.0667,-7.0603,-7.0601,-7.0599,-7.0598,0,-7.1401,-7.1297,-7.1359,-7.1259,-7.1236,-7.1299,-7.1213,-7.1247,-7.1174,-7.1211,-7.1212,-7.1098,-7.1106,-7.0999,-7.0988,-7.0932,-7.1033,-7.0984,-7.105,-7.1033,-7.1143,-7.1134,-7.1521,-7.1564,-7.1175,-7.1179,-7.1182,0,-7.1586,-7.1639,-7.1545,-7.1552,-7.1519,-7.1535,-7.153,-7.1403,-7.1404,-7.1349,-7.139,-7.1387,-7.1378,-7.14,-7.1316,-7.1306,-7.1254,-7.139,-7.1251,-7.1283,-7.1253,-7.125,-7.1253,-7.1419,-7.1424,-7.1428,-7.1431,0,-7.1923,-7.1869,-7.1867,-7.1848,-7.1846,-7.1825,-7.1795,-7.181,-7.1672,-7.168,-7.1686,-7.168,-7.1667,-7.1665,-7.1639,-7.1598,-7.1492,-7.1476,-7.1499,-7.1533,-7.1568,-7.1548,-7.1127,-7.1467,-7.1463,-7.1461,-7.1459,-7.1457,-7.2184,-7.2223,-7.2162,-7.2165,-7.2129,-7.2104,-7.213,-7.2059,-7.2062,-7.2041,-7.1966,-7.1986,-7.1931,-7.1885,-7.1854,-7.1867,-7.18,-7.1835,-7.1843,-7.1853,-7.1872,-7.1569,-7.1862,-7.1861,-7.186,-7.1859,-7.1858,0,-7.2512,-7.2465,-7.2469,-7.243,-7.2432,-7.2331,-7.2293,-7.2301,-7.2319,-7.2277,-7.227,-7.2277,-7.2275,-7.2191,-7.2178,-7.2205,-7.2155,-7.2205,-7.2201,-7.2193,-7.1934,-7.1914,-7.2245,-7.2245,-7.2245,-7.2245,-7.2245,-7.2245,-7.2683,-7.2743,-7.2681,-7.2722,-7.2674,-7.269,-7.2677,-7.2653,-7.2618,-7.2632,-7.2628,-7.2573,-7.2514,-7.2495,-7.2489,-7.2464,-7.2464,-7.2531,-7.249,-7.2249,-7.2211,-7.2176,-7.2156,-7.2533,-7.2533,-7.2746,-7.2749,-7.275]},{"header":{"parameterUnit":"m.s-1","parameterCategory":1,"la1":30.2991,"la2":30.254,"lo1":-89.0895,"lo2":-89.0444,"dy":0.0017,"dx":0.0017,"nx":28,"ny":28,"refTime":"2024-05-13T21:00:00:Z","depth":0,"parameterNumber":3,"parameterNumberName":"V-component_of_WINDS"},"data":[0,0,0,0,0,0,0,0,0,0,0,0,0,0,0,0,0,0,0,0,0,0,0,0,0,0,0,0,0,0,0,0,0,0,0,0,0,0,0,0,0,0,0,0,0,0,0,0,0,0,0,0,0,0,0,0,0,0,0.494,0.494,0,0.4942,0.4942,0.4942,0.5047,0.5049,0.5052,0.5055,0.505,0.5048,0.5045,0,0,0,0,0,0,0,0,0,0,0,0,0,0.502,0.5018,0.494,0.494,0.494,0.4942,0.4942,0.4943,0.5046,0.505,0.5053,0.5056,0.5051,0.5048,0.5045,0,0,0,0,0,0,0,0,0,0,0,0,0,0.5,0.5017,0.494,0.4992,0.4997,0.4942,0.4942,0.4943,0.5046,0.505,0.5054,0.5058,0.5052,0.5048,0.5044,0.4938,0,0,0.5032,0.503,0,0,0,0,0,0,0,0,0.5001,0.4997,0.4985,0.4989,0.4994,0.4999,0.4969,0.4941,0.5045,0.5027,0.5055,0.506,0.5029,0.5027,0.5019,0.4937,0.4937,0.5032,0.5029,0.5028,0.5026,0,0,0,0,0,0,0,0.5002,0.4997,0.4941,0.4984,0.499,0.5014,0.5016,0.4964,0.5005,0.5029,0.5036,0.5036,0.5033,0.5022,0.5019,0.4937,0.5032,0.5028,0.5026,0.5024,0.4767,0.4762,0,0,0,0,0,0,0.4997,0.4998,0.4941,0.4941,0.5008,0.5009,0.5011,0.4993,0.5006,0.5012,0.5032,0.504,0.5027,0.5024,0.5019,0.4893,0.5028,0.5024,0.5022,0.4771,0.4766,0.4761,0,0,0,0,0,0,0.4999,0.4991,0.4941,0.4972,0.4967,0.5004,0.4982,0.4991,0.4981,0.5008,0.5016,0.5014,0.503,0.5025,0.4957,0.4894,0.5022,0.5018,0.4776,0.4769,0.4763,0.4641,0,0,0,0,0,0,0.5,0.4991,0.4952,0.497,0.4965,0.488,0.4979,0.4988,0.4974,0.4985,0.4994,0.4999,0.5033,0.4963,0.4953,0.4891,0.5015,0.4782,0.4773,0.4765,0.465,0.4631,0.4614,0,0,0,0,0,0.5003,0.4916,0.4949,0.4942,0.4917,0.4876,0.4873,0.4916,0.4969,0.4929,0.4947,0.4999,0.4904,0.4955,0.4945,0.4881,0.4786,0.4776,0.4766,0.4658,0.4634,0.4614,0,0,0,0,0,0,0.4887,0.492,0.4957,0.4874,0.4872,0.4894,0.4844,0.4889,0.487,0.4881,0.4933,0.4934,0.4857,0.4863,0.4919,0.4778,0.4854,0.4842,0.4776,0.4753,0.4735,0.4733,0.5012,0,0,0,0,0,0.4853,0.4819,0.4848,0.4772,0.4769,0.4807,0.479,0.4824,0.4823,0.4822,0.4835,0.483,0.4799,0.4777,0.4751,0.4654,0.4655,0.4605,0.4586,0.4571,0.4558,0.4505,0.4482,0.4728,0.4728,0.4728,0,0,0.4779,0.4793,0.4768,0.4749,0.4751,0.4712,0.4805,0.476,0.4731,0.4814,0.475,0.476,0.4758,0.4674,0.4638,0.4677,0.4491,0.4558,0.4546,0.4541,0.4492,0.4468,0.4448,0.4721,0.4722,0.4723,0,0,0.4626,0.4634,0.4571,0.4572,0.4575,0.4601,0.4586,0.4602,0.4611,0.4549,0.4611,0.4576,0.4523,0.4518,0.4508,0.4355,0.44,0.4345,0.4247,0.4194,0.4175,0.4158,0.4099,0.4078,0.4333,0.4333,0.4332,0,0.4533,0.4479,0.4532,0.4483,0.4471,0.4549,0.4483,0.4481,0.4474,0.4463,0.4509,0.4442,0.4447,0.4362,0.4324,0.4316,0.4297,0.4342,0.4174,0.4157,0.4142,0.4086,0.4065,0.4326,0.4326,0.4327,0.4328,0,0.4364,0.4326,0.4274,0.4267,0.4251,0.4194,0.4236,0.4212,0.4248,0.4269,0.4203,0.4212,0.4187,0.4171,0.4204,0.409,0.4113,0.4165,0.4242,0.411,0.4059,0.4039,0.4315,0.4318,0.432,0.4322,0,0,0.4133,0.4159,0.4138,0.4136,0.4146,0.4116,0.4062,0.4041,0.4018,0.4012,0.3965,0.3919,0.3967,0.3957,0.3991,0.3945,0.3818,0.4003,0.4003,0.3964,0.3689,0.3646,0.3621,0.3851,0.3847,0.3845,0.3687,0,0.3982,0.3893,0.3939,0.3842,0.3806,0.388,0.3832,0.3832,0.385,0.382,0.384,0.3805,0.3873,0.3867,0.3826,0.3843,0.3763,0.3855,0.3804,0.3802,0.3798,0.3595,0.355,0.3401,0.3668,0.3665,0.3662,0,0.3792,0.3779,0.3679,0.3696,0.3682,0.3639,0.3622,0.3595,0.3595,0.3612,0.36,0.3645,0.3591,0.3671,0.3595,0.3657,0.364,0.3645,0.364,0.3633,0.372,0.3578,0.3355,0.3331,0.3632,0.3634,0.3637,0,0.3629,0.3587,0.3522,0.3518,0.3537,0.3504,0.351,0.3515,0.3499,0.3484,0.3474,0.3452,0.3439,0.342,0.3457,0.3513,0.3375,0.3459,0.3383,0.3382,0.3347,0.3347,0.3113,0.3343,0.3343,0.3344,0.3344,0,0.3452,0.3387,0.3449,0.3408,0.3337,0.3391,0.3318,0.3332,0.3336,0.3297,0.3361,0.3322,0.3376,0.3342,0.3371,0.3302,0.3296,0.3305,0.3313,0.3297,0.3295,0.3282,0.3292,0.3338,0.3339,0.334,0.3341,0,0.3256,0.3296,0.3228,0.3253,0.3257,0.3203,0.3222,0.3184,0.3208,0.3158,0.3149,0.3185,0.3149,0.3186,0.3152,0.3171,0.3077,0.3102,0.3076,0.3081,0.3002,0.3007,0.2748,0.2715,0.297,0.2967,0.2965,0,0.3138,0.309,0.311,0.309,0.3092,0.3059,0.3043,0.3095,0.3075,0.3073,0.3034,0.3004,0.2982,0.292,0.2941,0.2914,0.2936,0.2848,0.2932,0.2917,0.2929,0.293,0.2924,0.2828,0.2825,0.2823,0.2821,0,0.2924,0.2946,0.2923,0.2905,0.2885,0.2873,0.2866,0.2845,0.2899,0.2873,0.2838,0.2821,0.2787,0.2754,0.2735,0.2738,0.2786,0.2795,0.2775,0.2755,0.2741,0.2743,0.3024,0.2799,0.2801,0.2803,0.2804,0.2805,0.2761,0.2721,0.2728,0.2699,0.27,0.2692,0.2657,0.2677,0.265,0.2627,0.2659,0.2614,0.2615,0.2594,0.2592,0.2556,0.2593,0.2566,0.2558,0.2549,0.2535,0.2751,0.2553,0.2554,0.2555,0.2555,0.2556,0,0.2546,0.2555,0.2529,0.2517,0.2494,0.2546,0.2541,0.2516,0.2477,0.2476,0.2453,0.2411,0.2381,0.2401,0.2374,0.234,0.2361,0.2331,0.2331,0.2331,0.2506,0.2523,0.2314,0.2314,0.2314,0.2314,0.2314,0.2314,0.2431,0.2366,0.2389,0.2323,0.2333,0.2291,0.2283,0.2275,0.2274,0.2225,0.22,0.2215,0.2221,0.2195,0.2168,0.2175,0.2159,0.212,0.2133,0.2295,0.2319,0.2341,0.2358,0.2117,0.2117,0.1961,0.1959,0.1958]}]]